Time,TemperatureF,DewpointF,PressureIn,WindDirection,WindDirectionDegrees,WindSpeedMPH,WindSpeedGustMPH,Humidity,HourlyPrecipIn,Conditions,Clouds,dailyrainin,SoftwareType,DateUTC
2013-12-12 00:12:00,25.0,19.0,30.24,SW,214,0.0,0.0,76,0.00,,,0.01,,2013-12-12 05:12:00,
2013-12-12 00:23:00,24.0,18.0,30.24,SW,214,0.0,0.0,77,0.00,,,0.01,,2013-12-12 05:23:00,
2013-12-12 00:43:00,24.0,18.0,30.23,SW,214,0.0,0.0,77,0.00,,,0.01,,2013-12-12 05:43:00,
2013-12-12 00:53:00,24.0,18.0,30.23,SW,214,0.0,0.0,77,0.00,,,0.01,,2013-12-12 05:53:00,
2013-12-12 01:22:00,24.0,18.0,30.23,SW,214,0.0,0.0,76,0.00,,,0.01,,2013-12-12 06:22:00,
2013-12-12 01:43:00,24.0,18.0,30.24,SW,214,0.0,0.0,77,0.00,,,0.01,,2013-12-12 06:43:00,
2013-12-12 01:52:00,24.0,18.0,30.24,SW,214,0.0,0.0,77,0.00,,,0.01,,2013-12-12 06:52:00,
2013-12-12 02:22:00,23.0,17.0,30.25,SW,214,0.0,0.0,78,0.00,,,0.01,,2013-12-12 07:22:00,
2013-12-12 02:42:00,23.0,17.0,30.26,SW,214,0.0,0.0,79,0.00,,,0.01,,2013-12-12 07:42:00,
2013-12-12 02:52:00,23.0,18.0,30.27,SW,214,0.0,0.0,80,0.00,,,0.01,,2013-12-12 07:52:00,
2013-12-12 03:22:00,23.0,17.0,30.27,SW,214,0.0,0.0,78,0.00,,,0.01,,2013-12-12 08:22:00,
2013-12-12 03:42:00,23.0,17.0,30.28,SW,214,0.0,0.0,78,0.00,,,0.01,,2013-12-12 08:42:00,
2013-12-12 03:52:00,22.0,16.0,30.28,SW,214,0.0,0.0,78,0.00,,,0.01,,2013-12-12 08:52:00,
2013-12-12 04:12:00,22.0,16.0,30.29,SW,214,0.0,0.0,78,0.00,,,0.01,,2013-12-12 09:12:00,
2013-12-12 04:22:00,22.0,16.0,30.29,SW,214,0.0,0.0,78,0.00,,,0.01,,2013-12-12 09:22:00,
2013-12-12 04:43:00,21.0,16.0,30.29,SW,214,0.0,0.0,79,0.00,,,0.01,,2013-12-12 09:43:00,
2013-12-12 04:54:00,21.0,15.0,30.29,SW,214,0.0,0.0,76,0.00,,,0.01,,2013-12-12 09:54:00,
2013-12-12 05:12:00,21.0,14.0,30.29,SW,214,0.0,0.0,73,0.00,,,0.01,,2013-12-12 10:12:00,
2013-12-12 05:23:00,21.0,13.0,30.29,SW,214,0.0,0.0,70,0.00,,,0.01,,2013-12-12 10:23:00,
2013-12-12 05:43:00,21.0,12.0,30.30,SW,214,0.0,0.0,69,0.00,,,0.01,,2013-12-12 10:43:00,
2013-12-12 05:53:00,20.0,11.0,30.30,SW,214,0.0,0.0,67,0.00,,,0.01,,2013-12-12 10:53:00,
2013-12-12 06:12:00,20.0,11.0,30.30,SW,214,0.0,0.0,66,0.00,,,0.01,,2013-12-12 11:12:00,
2013-12-12 06:23:00,20.0,10.0,30.30,SW,214,0.0,0.0,64,0.00,,,0.01,,2013-12-12 11:23:00,
2013-12-12 06:42:00,20.0,10.0,30.31,SW,214,0.0,0.0,64,0.00,,,0.01,,2013-12-12 11:42:00,
2013-12-12 06:53:00,20.0,9.0,30.31,SW,214,0.0,0.0,63,0.00,,,0.01,,2013-12-12 11:53:00,
2013-12-12 07:12:00,20.0,10.0,30.32,SW,214,0.0,0.0,64,0.00,,,0.01,,2013-12-12 12:12:00,
2013-12-12 07:22:00,20.0,9.0,30.32,SW,214,0.0,0.0,63,0.00,,,0.01,,2013-12-12 12:22:00,
2013-12-12 07:42:00,19.0,9.0,30.33,SW,214,0.0,0.0,65,0.00,,,0.01,,2013-12-12 12:42:00,
2013-12-12 07:52:00,19.0,10.0,30.33,SW,214,0.0,0.0,66,0.00,,,0.01,,2013-12-12 12:52:00,
2013-12-12 08:12:00,18.0,9.0,30.34,SW,214,0.0,0.0,67,0.00,,,0.01,,2013-12-12 13:12:00,
2013-12-12 08:22:00,18.0,9.0,30.34,SW,214,0.0,0.0,67,0.00,,,0.01,,2013-12-12 13:22:00,
2013-12-12 08:42:00,19.0,10.0,30.35,SW,214,0.0,0.0,67,0.00,,,0.01,,2013-12-12 13:42:00,
2013-12-12 08:52:00,19.0,10.0,30.35,SW,214,0.0,0.0,66,0.00,,,0.01,,2013-12-12 13:52:00,
2013-12-12 09:11:00,20.0,10.0,30.35,SW,214,0.0,0.0,64,0.00,,,0.01,,2013-12-12 14:11:00,
2013-12-12 09:22:00,20.0,10.0,30.35,SW,214,0.0,0.0,64,0.00,,,0.01,,2013-12-12 14:22:00,
2013-12-12 09:42:00,21.0,10.0,30.36,SW,214,0.0,0.0,62,0.00,,,0.01,,2013-12-12 14:42:00,
2013-12-12 09:52:00,21.0,10.0,30.36,SW,214,0.0,0.0,62,0.00,,,0.01,,2013-12-12 14:52:00,
2013-12-12 10:11:00,21.0,10.0,30.35,SW,214,0.0,0.0,62,0.00,,,0.01,,2013-12-12 15:11:00,
2013-12-12 10:22:00,21.0,10.0,30.35,SW,214,0.0,0.0,62,0.00,,,0.01,,2013-12-12 15:22:00,
2013-12-12 10:43:00,22.0,10.0,30.36,SW,214,0.0,0.0,60,0.00,,,0.01,,2013-12-12 15:43:00,
2013-12-12 10:53:00,23.0,11.0,30.36,SW,214,0.0,0.0,59,0.00,,,0.01,,2013-12-12 15:53:00,
2013-12-12 11:13:00,24.0,11.0,30.35,North,359,0.0,0.0,57,0.00,,,0.01,,2013-12-12 16:13:00,
2013-12-12 11:23:00,24.0,10.0,30.35,North,359,0.0,0.0,55,0.00,,,0.01,,2013-12-12 16:23:00,
2013-12-12 11:43:00,24.0,11.0,30.33,North,359,0.0,0.0,56,0.00,,,0.01,,2013-12-12 16:43:00,
2013-12-12 11:53:00,24.0,11.0,30.32,North,359,0.0,0.0,56,0.00,,,0.01,,2013-12-12 16:53:00,
2013-12-12 12:23:00,24.0,10.0,30.30,North,359,0.0,0.0,55,0.00,,,0.00,,2013-12-12 17:23:00,
2013-12-12 12:43:00,25.0,10.0,30.29,North,359,0.0,0.0,53,0.00,,,0.00,,2013-12-12 17:43:00,
2013-12-12 12:53:00,25.0,11.0,30.28,North,359,0.0,0.0,55,0.00,,,0.00,,2013-12-12 17:53:00,
2013-12-12 13:11:00,26.0,11.0,30.28,North,359,0.0,0.0,53,0.00,,,0.00,,2013-12-12 18:11:00,
2013-12-12 13:22:00,26.0,11.0,30.28,North,359,0.0,0.0,52,0.00,,,0.00,,2013-12-12 18:22:00,
2013-12-12 13:43:00,27.0,12.0,30.27,North,359,0.0,0.0,52,0.00,,,0.00,,2013-12-12 18:43:00,
2013-12-12 13:52:00,28.0,12.0,30.27,North,359,0.0,0.0,50,0.00,,,0.00,,2013-12-12 18:52:00,
2013-12-12 14:21:00,28.0,11.0,30.26,North,359,0.0,0.0,48,0.00,,,0.00,,2013-12-12 19:21:00,
2013-12-12 14:42:00,27.0,10.0,30.25,North,359,0.0,0.0,49,0.00,,,0.00,,2013-12-12 19:42:00,
2013-12-12 14:52:00,27.0,11.0,30.26,North,359,0.0,0.0,51,0.00,,,0.00,,2013-12-12 19:52:00,
2013-12-12 15:12:00,27.0,11.0,30.25,North,359,0.0,0.0,50,0.00,,,0.00,,2013-12-12 20:12:00,
2013-12-12 15:22:00,27.0,11.0,30.25,North,359,0.0,0.0,51,0.00,,,0.00,,2013-12-12 20:22:00,
2013-12-12 15:42:00,27.0,11.0,30.25,North,359,0.0,0.0,51,0.00,,,0.00,,2013-12-12 20:42:00,
2013-12-12 15:52:00,27.0,10.0,30.24,North,359,0.0,0.0,49,0.00,,,0.00,,2013-12-12 20:52:00,
2013-12-12 16:11:00,25.0,10.0,30.24,North,359,0.0,0.0,52,0.00,,,0.00,,2013-12-12 21:11:00,
2013-12-12 16:22:00,25.0,11.0,30.25,North,359,0.0,0.0,54,0.00,,,0.00,,2013-12-12 21:22:00,
2013-12-12 16:43:00,24.0,10.0,30.24,North,359,0.0,0.0,55,0.00,,,0.00,,2013-12-12 21:43:00,
2013-12-12 16:53:00,24.0,11.0,30.24,North,359,0.0,0.0,57,0.00,,,0.00,,2013-12-12 21:53:00,
2013-12-12 17:12:00,23.0,10.0,30.24,North,359,0.0,0.0,58,0.00,,,0.00,,2013-12-12 22:12:00,
2013-12-12 17:23:00,23.0,10.0,30.24,North,359,0.0,0.0,57,0.00,,,0.00,,2013-12-12 22:23:00,
2013-12-12 17:43:00,23.0,9.0,30.24,North,359,0.0,0.0,55,0.00,,,0.00,,2013-12-12 22:43:00,
2013-12-12 17:53:00,23.0,10.0,30.24,North,359,0.0,0.0,56,0.00,,,0.00,,2013-12-12 22:53:00,
2013-12-12 18:12:00,22.0,10.0,30.24,North,359,0.0,0.0,58,0.00,,,0.00,,2013-12-12 23:12:00,
2013-12-12 18:22:00,22.0,10.0,30.24,North,359,0.0,0.0,58,0.00,,,0.00,,2013-12-12 23:22:00,
2013-12-12 18:43:00,22.0,10.0,30.24,North,359,0.0,0.0,59,0.00,,,0.00,,2013-12-12 23:43:00,
2013-12-12 18:53:00,21.0,9.0,30.25,North,359,0.0,0.0,60,0.00,,,0.00,,2013-12-12 23:53:00,
2013-12-12 19:11:00,21.0,10.0,30.25,North,359,0.0,0.0,61,0.00,,,0.00,,2013-12-13 00:11:00,
2013-12-12 19:22:00,21.0,10.0,30.26,North,359,0.0,0.0,61,0.00,,,0.00,,2013-12-13 00:22:00,
2013-12-12 19:42:00,21.0,10.0,30.25,North,359,0.0,0.0,62,0.00,,,0.00,,2013-12-13 00:42:00,
2013-12-12 19:52:00,21.0,10.0,30.25,North,359,0.0,0.0,62,0.00,,,0.00,,2013-12-13 00:52:00,
2013-12-12 20:12:00,21.0,10.0,30.25,North,359,0.0,0.0,62,0.00,,,0.00,,2013-12-13 01:12:00,
2013-12-12 20:22:00,20.0,9.0,30.24,North,359,0.0,0.0,63,0.00,,,0.00,,2013-12-13 01:22:00,
2013-12-12 20:42:00,20.0,9.0,30.24,North,359,0.0,0.0,63,0.00,,,0.00,,2013-12-13 01:42:00,
2013-12-12 20:52:00,20.0,9.0,30.23,North,359,0.0,0.0,63,0.00,,,0.00,,2013-12-13 01:52:00,
2013-12-12 21:11:00,20.0,10.0,30.23,North,359,0.0,0.0,64,0.00,,,0.00,,2013-12-13 02:11:00,
2013-12-12 21:22:00,19.0,9.0,30.22,North,359,0.0,0.0,64,0.00,,,0.00,,2013-12-13 02:22:00,
2013-12-12 21:52:00,19.0,9.0,30.21,North,359,0.0,0.0,64,0.00,,,0.00,,2013-12-13 02:52:00,
2013-12-12 22:12:00,19.0,9.0,30.20,North,359,0.0,0.0,65,0.00,,,0.00,,2013-12-13 03:12:00,
2013-12-12 22:22:00,19.0,9.0,30.20,North,359,0.0,0.0,64,0.00,,,0.00,,2013-12-13 03:22:00,
2013-12-12 22:53:00,19.0,8.0,30.19,North,359,0.0,0.0,61,0.00,,,0.00,,2013-12-13 03:53:00,
2013-12-12 23:13:00,20.0,8.0,30.18,WNW,302,0.0,0.0,59,0.00,,,0.00,,2013-12-13 04:13:00,
2013-12-12 23:22:00,21.0,9.0,30.18,WSW,248,0.0,0.0,59,0.00,,,0.00,,2013-12-13 04:22:00,
2013-12-12 23:44:00,21.0,8.0,30.17,WSW,248,0.0,0.0,57,0.00,,,0.00,,2013-12-13 04:44:00,
2013-12-12 23:52:00,21.0,8.0,30.17,WSW,248,0.0,0.0,57,0.00,,,0.00,,2013-12-13 04:52:00,